Temperature
19 19 19 19 19 18 18 18 18 18 18 18 18 18 18 18 18 18 18 18 18 18 18 18 18 18 18 18 18 18 18 17 17 17 17 17 17 17 17 17 16 16 16
18 19 19 19 19 19 18 18 18 18 18 18 18 18 18 18 18 18 18 18 18 18 18 18 18 18 18 18 18 18 18 18 17 17 17 17 17 17 17 17 17 16 16
18 18 18 19 19 19 18 18 18 18 18 18 18 18 18 18 18 18 18 18 18 19 19 18 18 18 18 18 18 18 18 18 18 17 17 17 17 17 17 17 17 16 16
18 18 18 18 18 18 18 18 18 18 18 18 18 18 18 18 18 18 18 18 18 18 19 19 19 19 18 18 18 18 18 18 18 18 17 17 17 17 17 17 17 17 16
17 17 17 17 17 17 18 18 18 18 18 18 18 18 18 18 18 18 18 18 18 19 19 19 19 19 19 19 18 18 18 18 18 18 18 18 18 18 17 17 17 17 17
17 17 17 17 17 17 17 17 17 18 18 18 18 18 18 18 18 18 18 18 18 19 19 19 19 19 19 19 19 18 18 18 18 18 18 18 18 18 18 18 17 17 17
17 17 17 17 17 17 17 17 17 17 17 17 17 17 18 18 18 18 18 18 18 19 19 19 19 19 19 19 19 19 18 18 18 18 18 18 18 18 18 18 17 17 17
17 17 17 17 17 17 17 17 16 16 17 17 17 17 17 17 18 18 18 18 18 19 19 19 19 19 19 19 19 19 19 18 18 18 18 18 18 18 18 17 17 17 17
16 16 16 16 16 16 16 16 16 16 16 16 16 16 16 16 17 17 18 18 18 18 18 18 18 18 18 18 18 19 19 19 18 18 18 18 18 18 18 17 17 17 17
16 16 16 16 16 16 16 16 16 15 15 15 16 16 16 16 15 16 16 17 17 17 17 17 17 17 17 17 18 18 18 18 18 18 18 18 18 18 18 17 17 17 17
16 15 15 15 15 15 15 15 15 15 15 15 15 15 15 15 15 15 15 16 16 16 16 16 16 16 16 17 17 17 18 18 18 18 18 18 18 18 18 17 17 17 17
15 15 15 15 14 14 14 14 14 14 14 14 15 15 15 15 15 15 14 15 15 15 15 15 15 15 16 16 16 16 17 17 17 18 18 18 17 18 17 17 17 17 17
15 15 14 14 14 14 14 14 14 14 14 14 14 14 14 15 14 14 14 14 14 14 14 14 15 15 15 15 15 15 16 16 17 17 17 17 17 17 17 17 17 16 16
14 14 14 14 14 14 14 14 14 14 14 14 14 14 14 14 14 14 14 14 14 14 14 14 14 14 14 14 14 15 15 16 16 16 16 16 16 16 17 17 17 16 16
14 14 13 13 13 13 13 13 13 14 14 14 14 14 14 14 14 14 14 14 14 13 13 13 13 13 13 13 14 14 14 15 15 15 16 16 16 16 16 16 16 16 16
13 13 13 13 13 13 13 13 13 13 13 13 13 13 13 13 13 13 13 13 13 13 13 13 13 12 13 13 13 13 14 14 14 14 15 15 15 15 15 15 15 15 15
13 13 13 13 12 12 12 13 13 13 13 13 13 13 13 13 13 13 13 13 13 13 13 12 12 12 12 12 13 13 14 14 14 14 14 14 14 14 14 14 14 14 14
13 12 12 12 12 12 12 12 12 12 12 12 12 12 12 12 12 12 13 13 13 13 13 12 12 12 12 12 13 13 13 13 13 13 13 13 13 13 13 13 13 14 14
12 12 12 12 12 12 12 12 12 12 12 12 12 12 12 12 12 12 12 12 12 12 12 12 12 12 12 12 12 12 13 13 13 12 12 12 12 12 13 13 13 13 13
12 12 12 12 11 11 11 11 11 11 11 11 12 12 12 12 12 12 12 12 12 12 12 12 12 12 12 12 12 12 12 12 12 12 12 12 12 12 12 12 12 12 12
12 12 11 11 11 11 11 11 11 11 11 11 11 11 11 12 12 12 12 12 12 12 12 12 12 12 11 11 11 11 11 11 11 11 11 11 11 11 11 11 11 12 12
12 11 11 11 11 11 11 11 11 11 11 11 11 11 11 11 11 11 12 12 12 13 12 12 12 11 11 11 11 11 11 11 11 11 11 11 11 11 11 11 11 11 11
12 11 11 11 11 11 11 10 10 11 11 11 11 11 11 11 11 11 11 11 11 11 12 12 11 11 11 11 11 11 11 11 10 10 11 10 10 10 10 10 10 10 11
12 11 11 11 11 10 10 10 10 10 10 11 11 11 11 11 11 11 11 11 11 11 11 11 11 10 10 10 10 10 10 10 10 10 10 10 10 10 9 9 9 10 10
11 11 11 11 11 10 10 10 10 11 11 11 11 11 11 11 11 11 11 11 11 10 10 10 10 10 10 10 10 10 10 10 9 9 9 9 9 9 9 9 9 9 9
11 11 11 11 11 11 10 10 11 11 11 11 11 11 11 11 11 11 11 11 11 10 10 10 10 10 9 9 9 9 9 9 9 9 9 9 8 9 8 8 8 9 9
Wind_Speed
9 7 7 9 11 11 10 8 8 9 9 11 11 12 12 14 15 15 14 19 21 21 21 21 21 21 22 23 25 26 26 26 25 25 26 26 26 25 26 26 26 25 25
8 8 9 8 9 11 11 8 8 9 9 8 10 11 11 12 12 14 16 17 20 21 22 22 22 22 23 23 23 24 25 25 25 25 26 26 26 26 26 26 26 26 26
12 9 9 10 9 12 11 9 9 8 9 9 10 11 10 10 11 13 15 15 16 18 21 22 22 23 23 23 23 24 24 24 24 25 25 26 26 26 26 25 25 25 26
14 9 10 10 10 10 8 9 9 9 9 9 9 9 9 9 12 12 14 14 15 16 17 20 21 22 23 24 24 24 25 24 24 25 25 26 26 26 26 25 25 24 25
11 8 9 9 9 8 8 10 9 8 9 10 10 10 9 10 11 12 12 13 15 16 16 16 19 21 22 23 24 25 25 25 25 26 26 27 27 27 26 25 25 24 24
8 6 7 8 7 7 8 8 10 9 9 9 11 10 9 10 10 11 13 12 12 16 16 16 15 16 20 22 24 25 25 26 26 26 27 27 28 27 27 26 25 24 24
7 5 6 6 6 7 8 9 9 10 10 7 6 7 8 10 12 11 11 11 13 14 14 14 14 14 14 18 22 24 26 26 26 26 27 27 27 27 27 26 25 25 24
7 6 6 6 6 7 8 9 9 7 7 6 6 6 5 5 8 11 11 12 13 11 12 12 12 12 13 13 16 21 23 25 25 26 26 26 27 27 27 26 25 25 25
8 7 8 7 7 7 8 9 9 10 9 7 9 7 5 7 4 4 7 9 9 8 9 8 10 10 12 12 14 17 21 21 22 23 24 24 24 25 26 26 26 25 25
7 7 8 8 8 7 9 10 10 9 11 9 7 9 9 5 5 4 3 5 7 8 8 8 8 8 9 9 11 13 16 17 17 17 18 19 21 22 24 26 26 26 25
7 7 8 8 9 8 10 11 11 11 10 11 9 7 10 9 9 8 6 4 4 5 6 7 6 6 5 5 5 7 9 9 9 9 10 12 14 18 22 24 26 26 26
6 7 8 8 9 9 10 11 11 12 11 12 10 9 8 6 7 9 10 7 5 3 3 3 2 2 1 0 1 2 2 3 4 3 2 3 5 9 15 20 23 24 24
6 8 9 9 9 10 11 11 11 12 12 12 12 10 9 9 6 6 8 6 5 3 2 0 1 1 2 2 4 7 7 8 8 8 6 5 4 3 3 6 12 15 17
7 9 10 10 11 11 11 10 10 11 10 11 11 10 8 8 7 7 6 6 5 3 2 1 3 3 3 3 6 8 7 10 11 10 10 10 10 9 8 7 6 5 4
7 9 10 11 11 11 11 10 8 9 8 8 8 8 7 6 6 6 5 5 5 5 3 2 2 4 4 4 7 7 8 12 13 12 12 12 12 12 12 12 12 11 10
7 9 10 11 12 11 10 9 7 7 6 5 5 6 5 4 5 4 4 4 3 3 3 3 3 3 4 6 9 9 10 14 15 13 13 12 12 13 13 12 12 11 10
7 8 10 11 11 11 10 7 6 5 3 2 3 4 4 4 3 3 3 3 4 5 7 4 4 4 5 7 7 8 10 10 11 15 14 14 14 14 14 13 12 11 10
6 7 8 9 9 10 9 7 5 2 1 2 2 3 3 3 4 4 5 6 7 7 9 9 4 4 6 6 7 8 8 9 10 14 15 15 15 15 15 14 14 13 11
5 5 6 7 8 8 8 7 6 5 6 6 6 5 5 6 6 6 8 9 8 9 8 9 5 4 6 5 7 8 9 7 8 10 12 14 14 15 15 14 14 13 12
4 4 4 5 5 6 7 7 8 8 9 9 9 8 7 7 8 9 10 10 10 10 9 10 8 6 5 4 5 6 7 7 7 7 8 9 11 12 13 14 14 13 12
4 2 2 3 4 3 5 6 8 9 9 10 10 9 9 11 11 9 10 9 10 10 9 10 8 7 5 5 5 3 4 4 6 6 4 5 5 6 7 10 12 13 12
4 2 1 1 2 2 5 7 7 8 8 9 9 9 10 12 16 16 15 12 10 11 11 9 8 8 5 4 4 4 4 4 4 6 4 5 4 5 5 7 10 12 13
6 5 4 2 2 1 4 7 8 7 7 7 7 7 9 10 11 12 15 16 14 13 11 9 11 7 4 3 4 7 6 6 4 5 3 5 5 5 5 7 12 14 15
8 7 6 5 4 3 5 7 8 7 7 7 6 6 8 7 7 11 12 12 11 9 8 9 9 6 4 3 3 4 4 4 4 5 5 4 5 4 4 5 11 16 17
9 8 7 8 7 6 8 9 9 6 7 7 6 5 7 8 10 14 13 13 11 9 11 13 12 11 11 9 5 5 5 6 5 5 5 4 4 3 3 4 8 14 16
10 10 9 9 9 8 10 11 10 7 7 6 6 6 8 9 10 11 12 12 12 8 8 9 10 10 10 11 11 6 5 5 3 3 5 4 4 4 3 3 5 9 12
Wind_Direction
244 244 246 247 246 246 247 248 252 253 252 253 251 248 247 247 248 250 256 260 262 262 264 266 266 264 260 252 244 238 235 231 226 222 222 223 223 224 224 224 222 220 218
242 244 248 247 245 244 244 244 249 253 254 251 253 250 248 250 248 248 251 257 260 261 263 266 268 266 262 256 248 241 237 233 228 223 222 224 224 225 226 226 224 222 220
242 242 244 246 244 241 240 241 243 245 248 246 247 248 248 248 246 247 250 253 258 260 259 260 263 263 262 258 251 244 239 234 228 224 223 224 224 225 225 226 225 224 221
244 241 244 247 245 241 238 238 238 241 244 244 243 244 243 242 246 246 248 249 252 256 256 254 255 257 258 257 253 247 241 236 231 227 224 224 224 225 224 225 225 224 221
254 246 248 253 251 247 244 246 239 231 240 243 243 243 241 244 247 249 247 246 247 248 251 252 251 252 255 257 254 249 244 239 235 230 227 225 224 224 223 223 223 223 220
275 265 259 261 259 256 252 244 243 235 235 239 248 250 241 238 239 241 246 248 248 250 251 252 251 253 252 252 252 250 246 242 238 235 231 227 225 223 221 220 220 220 217
297 283 278 275 267 260 258 252 249 246 243 236 242 256 253 243 241 241 241 245 248 249 250 250 252 251 253 249 247 248 247 245 242 238 234 229 225 222 219 218 217 217 215
307 303 290 285 277 270 267 260 251 251 246 218 218 235 258 259 239 237 235 238 244 247 250 251 249 246 248 249 247 243 244 245 244 240 236 230 225 220 217 216 215 214 213
309 301 296 291 285 275 271 265 254 249 250 232 215 216 222 236 250 245 234 236 239 239 242 244 248 248 248 246 246 241 238 240 242 241 236 230 225 220 215 214 213 212 212
307 307 305 301 293 284 275 271 263 251 247 245 229 222 225 214 222 257 247 236 235 236 239 243 248 249 248 244 242 239 237 236 238 239 236 233 228 221 216 214 214 213 212
305 309 308 305 299 291 282 274 268 257 247 244 234 222 229 232 229 235 254 246 235 237 239 246 253 253 249 245 248 245 232 225 226 231 238 240 234 224 216 214 215 215 213
304 306 310 304 298 292 286 280 272 262 252 246 240 229 220 219 218 223 235 239 240 241 240 252 252 252 255 280 38 67 111 129 135 144 195 239 238 225 217 216 217 217 217
309 310 312 307 303 295 289 282 276 267 255 248 242 236 229 227 217 213 225 233 233 226 211 124 26 38 67 55 55 67 73 88 89 87 86 86 83 103 160 200 213 216 218
297 301 305 305 303 300 295 286 278 269 258 247 240 232 229 226 219 212 210 207 212 204 187 143 56 48 55 52 62 65 66 74 78 80 81 80 78 77 79 85 97 123 154
297 305 309 308 307 304 299 293 279 271 257 243 232 222 219 217 212 210 202 193 191 190 177 133 91 43 55 61 60 70 69 71 74 77 81 82 80 77 76 75 77 77 76
300 312 317 316 314 310 305 297 285 272 255 238 220 208 207 206 197 195 187 185 185 164 131 81 74 55 66 80 70 75 74 70 67 75 79 82 82 81 79 76 73 70 67
304 315 322 323 323 322 318 309 296 282 248 215 190 185 186 175 171 167 146 135 119 115 116 89 58 52 64 76 71 73 73 71 70 71 76 78 79 77 75 72 68 64 58
301 313 324 330 337 339 336 335 335 342 63 89 103 125 116 123 115 115 114 112 108 106 118 112 78 60 65 71 75 70 67 70 70 68 72 74 75 74 71 67 63 57 48
295 315 329 339 344 349 354 2 17 42 54 58 61 74 84 96 94 97 101 104 105 106 103 110 99 70 67 60 70 68 63 58 62 62 65 66 69 72 70 65 59 51 42
275 306 324 339 348 2 17 30 47 57 58 56 56 58 65 82 98 105 104 105 108 105 103 104 99 82 68 54 70 74 70 56 49 43 49 54 59 64 62 59 51 43 34
240 268 312 351 358 14 40 52 63 70 70 67 59 59 72 87 89 97 112 113 114 110 105 102 97 88 72 64 65 62 80 72 55 32 35 39 41 50 50 45 40 30 22
210 204 222 24 23 49 67 68 77 79 76 77 76 72 78 83 86 84 87 89 102 114 113 105 98 94 84 76 74 72 70 65 48 11 22 31 31 42 35 34 23 19 14
195 190 189 167 143 114 103 88 81 86 84 80 80 84 91 90 92 95 84 77 74 82 98 110 104 101 96 93 97 87 76 74 62 358 10 33 22 37 27 27 22 19 12
192 189 188 178 167 170 147 119 100 88 84 76 76 94 104 97 102 106 98 87 77 70 79 91 100 96 95 97 96 100 100 89 67 33 21 35 10 9 356 14 18 15 11
192 189 186 180 174 176 169 149 125 107 95 79 69 75 102 103 113 114 107 102 93 81 76 82 82 79 74 71 97 103 89 81 59 30 17 28 6 354 352 3 5 8 5
196 186 185 185 179 178 180 165 140 126 112 99 77 65 76 100 113 119 120 119 113 108 106 90 72 59 61 57 54 68 92 93 77 40 11 17 14 11 15 353 350 2 5
Height
1530 1530 1530 1530 1530 1530 1530 1530 1530 1530 1530 1530 1529 1529 1529 1529 1529 1529 1529 1529 1529 1529 1530 1529 1530 1530 1531 1531 1532 1533 1533 1534 1534 1535 1537 1538 1540 1541 1543 1545 1547 1549 1551
1526 1526 1526 1525 1525 1525 1525 1525 1524 1524 1525 1525 1524 1524 1524 1524 1524 1525 1525 1525 1525 1525 1525 1525 1525 1525 1526 1527 1527 1528 1528 1529 1530 1531 1532 1533 1535 1536 1538 1540 1542 1545 1546
1521 1520 1519 1519 1518 1519 1518 1518 1518 1518 1518 1518 1517 1518 1518 1518 1519 1519 1519 1519 1519 1519 1520 1520 1520 1520 1521 1521 1522 1523 1523 1524 1525 1526 1527 1528 1529 1531 1533 1535 1537 1539 1542
1515 1514 1512 1511 1511 1511 1511 1511 1510 1510 1510 1510 1510 1511 1511 1512 1513 1513 1513 1513 1513 1513 1513 1514 1514 1514 1515 1515 1516 1516 1517 1518 1519 1520 1521 1523 1524 1525 1527 1529 1531 1534 1536
1509 1507 1505 1504 1504 1503 1502 1502 1502 1502 1502 1502 1503 1503 1504 1505 1505 1506 1506 1506 1506 1506 1506 1506 1507 1507 1508 1509 1509 1510 1511 1512 1513 1514 1515 1517 1518 1519 1521 1523 1525 1528 1530
1503 1501 1499 1498 1497 1495 1495 1495 1494 1494 1494 1494 1495 1495 1495 1496 1497 1497 1498 1499 1499 1499 1499 1499 1499 1500 1500 1501 1502 1503 1504 1505 1506 1508 1509 1510 1512 1513 1515 1517 1519 1522 1524
1497 1495 1493 1491 1490 1488 1487 1487 1487 1486 1486 1487 1488 1487 1487 1488 1488 1489 1490 1490 1491 1491 1491 1491 1491 1491 1492 1493 1494 1496 1497 1498 1499 1500 1502 1504 1505 1507 1509 1511 1513 1515 1518
1491 1488 1486 1484 1482 1481 1480 1480 1479 1478 1478 1480 1480 1480 1479 1479 1479 1480 1481 1482 1482 1483 1483 1483 1483 1483 1484 1484 1485 1487 1489 1490 1492 1493 1495 1496 1498 1500 1502 1505 1507 1509 1512
1485 1482 1480 1477 1475 1474 1472 1472 1471 1471 1470 1471 1472 1474 1473 1470 1471 1471 1472 1473 1474 1475 1475 1475 1475 1475 1476 1476 1477 1478 1480 1482 1484 1486 1488 1489 1491 1493 1496 1498 1500 1503 1506
1480 1477 1474 1471 1469 1467 1465 1463 1463 1462 1462 1462 1463 1464 1465 1465 1466 1464 1464 1465 1466 1467 1467 1467 1468 1468 1469 1469 1469 1470 1472 1474 1476 1479 1481 1482 1484 1486 1489 1491 1494 1496 1499
1476 1472 1468 1465 1462 1460 1457 1455 1454 1454 1453 1454 1454 1455 1456 1457 1457 1458 1457 1457 1458 1459 1460 1460 1460 1461 1462 1462 1462 1463 1464 1466 1469 1471 1473 1475 1477 1479 1481 1484 1487 1490 1493
1471 1467 1463 1460 1456 1453 1450 1448 1446 1445 1445 1445 1446 1447 1447 1448 1448 1449 1450 1450 1451 1453 1453 1454 1454 1454 1455 1456 1456 1457 1458 1460 1462 1464 1466 1468 1470 1472 1475 1477 1481 1484 1487
1466 1462 1458 1454 1451 1447 1444 1441 1439 1438 1437 1437 1437 1438 1439 1440 1441 1442 1444 1444 1445 1447 1448 1448 1448 1449 1450 1451 1451 1452 1454 1455 1457 1459 1461 1463 1464 1466 1468 1471 1474 1477 1481
1462 1458 1453 1449 1446 1442 1438 1435 1432 1431 1430 1430 1430 1430 1431 1432 1434 1435 1437 1438 1440 1442 1443 1444 1444 1445 1446 1448 1449 1451 1452 1453 1454 1455 1457 1459 1460 1462 1463 1465 1468 1471 1474
1458 1454 1450 1445 1441 1437 1433 1429 1426 1425 1424 1423 1423 1424 1425 1426 1427 1429 1431 1432 1435 1437 1439 1441 1441 1443 1445 1447 1448 1449 1451 1452 1453 1454 1455 1456 1458 1459 1460 1462 1464 1466 1469
1456 1451 1446 1442 1437 1432 1428 1424 1421 1419 1418 1417 1418 1419 1420 1421 1422 1424 1425 1427 1430 1432 1435 1437 1439 1442 1444 1446 1447 1449 1450 1451 1452 1453 1454 1455 1457 1457 1458 1460 1461 1463 1465
1453 1448 1444 1439 1434 1429 1425 1421 1417 1415 1414 1414 1414 1415 1416 1417 1419 1420 1422 1424 1426 1429 1431 1436 1439 1442 1445 1447 1448 1449 1450 1451 1452 1453 1454 1455 1456 1457 1457 1459 1460 1461 1463
1450 1446 1442 1437 1432 1427 1423 1419 1415 1413 1412 1411 1412 1413 1414 1415 1417 1419 1421 1423 1426 1429 1432 1436 1440 1444 1446 1448 1450 1451 1451 1452 1453 1453 1454 1455 1456 1456 1457 1457 1458 1459 1460
1447 1444 1440 1436 1431 1427 1422 1418 1415 1413 1412 1412 1412 1412 1414 1416 1418 1419 1422 1424 1428 1431 1435 1438 1442 1446 1448 1450 1451 1452 1453 1453 1454 1455 1455 1455 1456 1456 1456 1457 1457 1457 1458
1444 1442 1439 1435 1431 1427 1423 1419 1416 1415 1414 1414 1414 1415 1416 1418 1420 1422 1424 1427 1431 1434 1438 1441 1444 1447 1450 1451 1453 1454 1454 1455 1456 1456 1457 1457 1457 1457 1457 1457 1456 1456 1456
1441 1439 1437 1435 1432 1429 1425 1422 1419 1418 1418 1418 1418 1419 1421 1422 1423 1426 1428 1432 1435 1438 1441 1444 1447 1449 1452 1453 1454 1456 1456 1457 1457 1458 1458 1458 1458 1458 1458 1457 1457 1456 1455
1437 1437 1436 1434 1432 1430 1427 1425 1423 1422 1422 1423 1424 1425 1426 1427 1429 1432 1435 1438 1440 1442 1444 1446 1449 1451 1453 1455 1456 1457 1458 1458 1458 1460 1460 1460 1459 1459 1458 1458 1457 1456 1454
1433 1433 1433 1433 1432 1431 1429 1428 1427 1426 1426 1428 1429 1430 1431 1433 1435 1437 1439 1442 1445 1447 1449 1450 1451 1454 1455 1457 1458 1458 1459 1459 1460 1461 1461 1460 1460 1459 1459 1458 1457 1455 1453
1428 1429 1430 1430 1431 1431 1431 1430 1430 1430 1431 1433 1434 1436 1437 1438 1440 1442 1443 1445 1448 1450 1452 1454 1455 1456 1458 1459 1460 1460 1461 1461 1461 1462 1461 1461 1461 1460 1459 1458 1457 1455 1453
1423 1424 1426 1428 1429 1430 1431 1431 1432 1433 1434 1436 1437 1439 1440 1442 1444 1445 1447 1448 1450 1453 1455 1456 1458 1459 1460 1461 1461 1462 1462 1462 1462 1463 1462 1462 1461 1461 1460 1459 1457 1455 1452
1417 1419 1422 1424 1426 1428 1430 1431 1433 1434 1436 1437 1439 1440 1442 1444 1445 1447 1449 1450 1452 1455 1457 1458 1460 1461 1462 1462 1463 1463 1463 1463 1463 1463 1464 1463 1462 1461 1460 1459 1457 1454 1452